Home   Weather   Township of Milan   Past weeks
Flag for USA

Past Weather in Township of Milan, Illinois, USA — Yesterday and Last 2 Weeks

Currently: 35 °F. Fog. (Weather station: De Kalb Taylor Municipal Airport, USA). See more current weather

Past Weather in Township of Milan — Graph

°F

Township of Milan Temperature Yesterday

Maximum temperature yesterday: 36 °F (at 7:35 pm)
Minimum temperature yesterday: 32 °F (at 12:15 am)
Average temperature yesterday: 35 °F

High & Low Weather Summary for the Past Weeks

 TemperatureHumidityPressure
High54 °F (Nov 29, 6:55 pm)100% (Nov 25, 1:55 am)30.47 "Hg (Nov 25, 1:55 am)
Low12 °F (Dec 4, 2:55 am)35% (Nov 26, 1:55 pm)29.46 "Hg (Nov 29, 5:35 pm)
Average33 °F83%30.04 "Hg
* Reported Nov 25 1:15 am — Dec 10 1:15 am, Township of Milan. Weather by CustomWeather, © 2022

Note: Actual official high and low records may vary slightly from our data, if they occured in-between our weather recording intervals... More about our weather records

Township of Milan Weather History for the Previous 24 Hours

Scroll right to see more
 ConditionsComfort  
Time TempWeatherWind HumidityBarometerVisibility
1:15 am
Sat, Dec 10
35 °FFog.10 mph100%30.21 "Hg4 mi
12:55 am35 °FFog.10 mph100%30.20 "Hg5 mi
12:15 am36 °FFog.10 mph100%30.21 "Hg3 mi
11:35 pm
Fri, Dec 9
36 °FFog.8 mph100%30.21 "Hg2 mi
11:15 pm36 °FFog.8 mph100%30.22 "Hg2 mi
10:55 pm36 °FFog.6 mph100%30.21 "Hg2 mi
10:35 pm36 °FFog.9 mph100%30.21 "Hg2 mi
10:15 pm36 °FDrizzle. Low clouds.8 mph100%30.21 "Hg1 mi
9:55 pm36 °FFog.7 mph100%30.21 "Hg2 mi
9:35 pm36 °FDrizzle. Low clouds.9 mph100%30.21 "Hg2 mi
9:15 pm36 °FFog.9 mph100%30.21 "Hg1 mi
8:35 pm36 °FFog.8 mph100%30.20 "Hg2 mi
7:55 pm36 °FFog.8 mph100%30.19 "Hg2 mi
7:35 pm36 °FFog.9 mph100%30.20 "Hg2 mi
7:15 pm35 °FFog.8 mph100%30.20 "Hg2 mi
6:55 pm35 °FFog.10 mph100%30.19 "Hg3 mi
5:35 pm35 °FLow clouds.12 mph100%30.17 "Hg7 mi
5:15 pm35 °FLow clouds.13 mph100%30.16 "Hg7 mi
4:55 pm35 °FLow clouds.10 mph100%30.16 "Hg10 mi
4:35 pm34 °FLow clouds.13 mph100%30.16 "Hg7 mi
3:55 pm34 °FLight snow. Low clouds.9 mph100%30.15 "Hg3 mi
3:35 pm34 °FLight rain. Low clouds.9 mph100%30.16 "Hg4 mi
3:15 pm34 °FDrizzle. Low clouds.10 mph100%30.14 "Hg1 mi
2:55 pm35 °FRain. Low clouds.10 mph100%30.14 "Hg1 mi
2:35 pm34 °FFog.10 mph100%30.13 "Hg2 mi
2:15 pm35 °FFog.14 mph100%30.12 "Hg2 mi
1:35 pm35 °FFog.13 mph100%30.12 "Hg2 mi
1:15 pm35 °FFog.14 mph100%30.11 "Hg2 mi
12:35 pm35 °FFog.14 mph100%30.11 "Hg2 mi
12:15 pm35 °FLight rain. Low clouds.13 mph100%30.11 "Hg1 mi
11:55 am35 °FFog.16 mph100%30.12 "Hg1 mi
11:35 am35 °FDrizzle. Low clouds.14 mph100%30.13 "Hg1 mi
11:15 am35 °FDrizzle. Low clouds.14 mph100%30.13 "Hg1 mi
10:55 am34 °FDrizzle. Low clouds.13 mph100%30.14 "Hg1 mi
10:15 am34 °FLight rain. Low clouds.15 mph100%30.14 "Hg1 mi
9:55 am34 °FLight rain. Cloudy.14 mph100%30.14 "Hg1 mi
9:35 am34 °FLight rain. Cloudy.13 mph100%30.14 "Hg1 mi
9:15 am34 °FLight rain. Low clouds.15 mph100%30.14 "Hg1 mi
8:55 am34 °FLight snow. Low clouds.15 mph100%30.13 "Hg1 mi
8:35 am34 °FLight snow. Low clouds.14 mph100%30.12 "Hg1 mi
7:55 am34 °FLight snow. Low clouds.16 mph100%30.12 "Hg2 mi
7:35 am34 °FLight snow. Low clouds.16 mph100%30.11 "Hg2 mi
6:55 am35 °FLight rain. Low clouds.16 mph100%30.12 "Hg3 mi
6:15 am35 °FLight rain. Overcast.18 mph100%30.12 "Hg2 mi
5:55 am35 °FLight snow. Mostly cloudy.17 mph98%30.13 "Hg3 mi
5:35 am35 °FLight snow. Overcast.17 mph98%30.14 "Hg3 mi
5:15 am35 °FLight rain. Mostly cloudy.15 mph97%30.14 "Hg4 mi
4:55 am35 °FLight rain. Mostly cloudy.15 mph97%30.15 "Hg5 mi
4:35 am35 °FLight rain. Overcast.15 mph97%30.15 "Hg5 mi
4:15 am35 °FLight rain. Overcast.15 mph97%30.16 "Hg5 mi
3:55 am35 °FDrizzle. Overcast.14 mph95%30.17 "Hg5 mi
3:35 am35 °FOvercast.14 mph93%30.18 "Hg7 mi
2:55 am35 °FOvercast.15 mph92%30.19 "Hg7 mi
2:15 am35 °FOvercast.14 mph94%30.21 "Hg7 mi
Weather by CustomWeather, © 2022

See weather overview